Location: Bothwell
(41.7170°N, 112.2589°W)
Time: 18:40:14
(UTC+00:00)

ACS3 Solar Sail - Pass Details

Date: 26 April 2026
Orbit: 894 x 947 km, 97.2° (Epoch: 12 May)

Event Time Altitude Azimuth Distance (km) Brightness Sun altitude
Rises 10:28:48 0° 352° (N) 3,562 5.2 -20.6°
Reaches altitude 10° 10:32:57 10° 323° (NW) 2,627 4.1 -20.0°
Maximum altitude 10:35:00 12° 302° (WNW) 2,491 3.8 -19.8°
Enters shadow 10:36:23 11° 288° (WNW) 2,559 3.7 -19.6°
